CAPE
161 114 37 2 1 0 0 1 87 7 947 743 592 794 1810 1101 297 612 1473 1686 2321 2643 2488 2867 2485 2476 2389 2531 2892 2861 2666 2666 2428 2181 2255 2129 1671 1681 1257 1036 1059 879 711 422
590 264 130 35 266 236 527 633 314 526 741 275 205 1503 1601 769 751 1810 2167 2853 3493 3473 3439 3134 2658 2506 2532 2463 2651 2702 2678 2600 2846 2474 2279 2141 1993 1695 1254 1011 955 806 591 482
559 361 273 124 1504 1411 1182 443 988 957 1179 1463 1569 1665 1661 1684 1883 2160 2646 2848 2249 1472 3010 3567 3051 2673 2473 2599 2612 2986 2847 2930 3098 2612 2156 1845 1690 1736 1389 955 1046 818 750 564
275 487 229 252 1147 1113 829 621 623 1053 1004 1446 1417 1445 1517 1746 1808 2236 2416 2504 2399 2248 2654 2529 3040 3228 2736 2902 2939 3382 3336 3100 2835 2515 1908 1787 1508 1252 1108 1084 1007 1266 1045 998
148 127 163 1109 300 431 675 222 372 346 251 542 864 630 862 1198 1810 1869 1869 2404 2138 1928 2743 3004 3291 3459 3436 3477 3366 3549 3407 2901 2860 2463 2204 1603 1250 1064 1171 1189 1402 1429 1214 1168
83 244 304 935 276 41 221 132 171 663 723 1180 220 21 171 942 1125 1268 1522 1438 1891 1720 2334 2803 2660 2896 2898 3071 3669 3683 3507 3274 2953 2336 1903 1326 911 1064 1331 1394 1363 1257 1022 851
148 160 935 831 667 281 83 330 831 553 445 643 317 78 768 1092 1079 1138 1119 1136 1076 1002 1862 1832 1877 2238 2792 2724 2582 2598 3099 2792 1296 606 20 169 673 1311 1293 1418 1296 1091 1131 944
426 326 291 558 668 1095 732 680 584 435 406 714 670 535 569 1023 736 738 729 640 600 745 959 1448 1922 2150 2411 2563 2231 2284 2134 1691 1272 745 486 139 44 235 1077 1070 970 1124 1027 755
139 304 485 319 453 591 529 286 267 377 273 360 361 652 664 590 674 623 525 214 38 28 241 881 1051 1155 1903 1579 1350 1339 1166 1047 930 550 3 0 0 0 709 852 889 933 746 578
279 508 290 313 325 305 224 302 288 292 344 398 427 425 708 587 406 153 11 0 0 0 0 2 117 700 1661 1392 1085 1059 937 464 318 0 18 67 40 138 549 674 694 633 633 660
191 377 342 87 245 493 638 445 257 113 571 598 577 587 607 413 320 100 0 0 0 0 0 2 0 340 769 1081 1217 1014 657 624 189 75 36 322 572 714 686 494 540 650 671 572
146 100 143 10 24 179 46 47 112 19 634 812 662 475 307 50 103 2 0 0 0 0 0 0 0 0 147 709 803 714 717 495 314 108 348 591 525 605 513 326 362 447 286 189
414 91 20 6 25 84 12 29 23 0 520 743 613 274 90 0 0 4 7 2 0 0 0 0 0 1 0 12 70 367 387 385 217 192 245 411 350 358 233 141 101 87 122 48
148 193 276 28 8 0 1 1 5 248 691 687 366 340 65 0 0 0 0 2 0 0 0 0 1 0 0 10 11 55 24 154 187 153 184 233 202 282 74 48 0 1 0 0
135 66 0 5 93 299 458 480 477 471 476 655 382 378 125 0 0 0 0 0 0 0 0 0 0 0 0 0 10 7 6 5 36 37 93 22 103 42 41 2 1 9 0 4
14 5 37 93 336 400 424 527 234 138 258 331 244 96 51 8 0 0 0 0 0 0 5 1 0 0 14 6 2 3 2 23 10 1 0 5 10 39 28 19 40 46 32 21
0 0 66 372 385 329 265 328 133 27 81 79 50 38 56 63 45 28 34 6 0 0 0 0 0 0 0 0 0 24 0 0 0 4 0 0 5 11 12 5 14 51 53 34
0 1 181 398 313 60 196 113 12 2 0 0 0 1 20 61 31 28 7 2 0 12 8 4 0 0 2 0 0 0 0 0 18 5 0 0 4 1 15 17 20 28 50 42
219 232 264 308 286 383 229 174 92 28 99 24 0 5 15 70 43 1 0 0 0 0 0 0 1 13 5 0 0 0 0 0 0 2 10 4 5 6 7 32 35 44 28 35
327 304 276 315 273 211 258 311 448 247 273 207 162 64 2 0 0 0 0 0 0 1 0 2 4 7 8 6 0 0 0 0 3 25 18 14 28 46 20 4 15 28 26 34
401 416 387 320 101 130 32 69 196 454 348 222 62 24 0 0 0 0 0 0 0 4 0 2 3 10 8 1 0 0 0 1 9 31 37 33 30 41 58 25 23 27 31 34
250 251 263 212 115 47 14 0 10 189 273 261 133 5 0 0 0 3 8 8 5 1 1 13 8 3 4 3 7 6 3 7 15 22 24 30 52 56 59 44 25 12 13 0
125 282 332 419 268 133 11 187 29 200 208 125 9 0 0 0 0 0 1 0 1 0 1 1 0 0 0 0 5 25 16 13 11 11 14 7 7 6 4 4 0 0 1 0
0 26 12 5 170 373 220 272 203 156 15 0 0 0 0 0 7 0 0 0 0 0 0 0 0 0 2 0 10 26 27 35 14 4 9 19 4 5 0 0 0 0 0 0
192 82 137 138 73 305 323 301 187 111 67 21 7 6 8 39 14 0 0 0 0 0 0 0 0 0 0 1 3 2 9 7 36 38 1 3 0 0 0 0 0 0 0 0
460 360 292 201 464 508 405 327 159 92 89 35 32 33 37 5 0 0 0 0 0 0 0 0 0 0 0 0 0 0 0 1 1 0 0 0 0 0 0 0 0 0 0 0
701 632 428 372 679 597 438 191 15 3 14 23 14 20 29 2 0 0 0 0 0 0 0 0 0 0 1 1 0 0 0 0 0 0 0 0 0 0 0 0 0 0 0 1
CIN
-49 -46 -34 -65 -35 -0 -0 -12 -28 -10 -185 -113 -73 -39 -299 -11 -35 -25 -162 -71 -136 -88 -101 -96 -103 -96 -151 -125 -97 -83 -92 -78 -104 -81 -62 -48 -81 -50 -46 -37 -9 -18 -19 -34
-62 -54 -38 -5 -31 -25 -58 -84 -79 -99 -217 -64 -62 -131 -130 -98 -377 -156 -37 -7 -47 -81 -44 -101 -125 -78 -91 -97 -70 -77 -81 -84 -33 -35 -76 -65 -53 -49 -55 -48 -13 -5 -29 -26
-48 -54 -44 -16 -52 -52 -155 -309 -254 -219 -179 -63 -158 -96 -93 -28 -64 -43 -100 -128 -51 -50 -22 -68 -86 -52 -72 -62 -55 -37 -50 -59 -49 -31 -80 -70 -56 -28 -35 -47 -20 -14 -22 -29
-54 -103 -35 -210 -64 -138 -95 -167 -145 -87 -80 -88 -84 -65 -47 -63 -97 -111 -151 -165 -134 -120 -126 -70 -13 -59 -1 -89 -69 -37 -63 -56 -51 -62 -20 -12 -65 -81 -75 -52 -42 -26 -21 -12
-57 -75 -41 -99 -70 -82 -8 -64 -116 -16 -31 -242 -134 -94 -86 -58 -75 -106 -130 -173 -186 -202 -102 -91 -66 -99 -61 -19 -40 -42 -39 -39 -57 -26 -48 -47 -66 -84 -47 -41 -22 -9 -13 -11
-99 -47 -40 -126 -81 -528 -124 -85 -98 -5 -33 -77 -167 -46 -357 -218 -85 -96 -135 -286 -203 -218 -84 -85 -88 -62 -150 -86 -35 -11 -51 -49 -89 -68 -7 -34 -45 -76 -32 -30 -18 -10 -20 -14
-44 -27 -89 -92 -81 -117 -207 -180 -65 -138 -21 -39 -44 -47 -38 -77 -104 -122 -168 -175 -184 -213 -112 -146 -133 -83 -54 -54 -37 -44 -49 -13 -21 -14 -12 -404 -39 -21 -19 -12 -17 -22 -8 -5
-39 -20 -60 -127 -76 -51 -75 -60 -45 -129 -52 -38 -82 -30 -60 -64 -124 -161 -261 -330 -360 -327 -266 -143 -47 -35 -17 -29 -14 -22 -20 -37 -28 -30 -22 -39 -42 -18 -6 -20 -28 -8 -2 -21
-124 -99 -61 -117 -60 -72 -61 -122 -192 -150 -111 -69 -108 -93 -182 -215 -228 -262 -277 -440 -506 -532 -390 -193 -143 -100 -28 -96 -123 -116 -103 -99 -52 -45 -5 -0 -0 -0 -7 -28 -35 -27 -27 -34
-71 -18 -22 -38 -91 -83 -87 -74 -85 -74 -49 -39 -19 -53 -70 -138 -186 -322 -405 -0 -0 -0 -0 -87 -348 -140 -12 -48 -104 -121 -132 -114 -83 -0 -534 -234 -58 -0 -6 -34 -29 -31 -27 -13
-63 -78 -28 -11 -40 -22 -10 -31 -103 -123 -37 -51 -42 -29 -10 -34 -52 -133 -0 -0 -0 -0 -0 -0 -0 -150 -53 -46 -25 -35 -91 -80 -95 -124 -159 -197 -28 -7 -23 -24 -26 -30 -33 -10
-59 -4 -2 -3 -70 -93 -24 -90 -109 -168 -20 -29 -48 -55 -69 -153 -91 -1 -0 -0 -0 -0 -0 -0 -0 -0 -94 -20 -18 -12 -9 -39 -61 -113 -40 -3 -12 -13 -32 -36 -41 -27 -32 -45
-33 -52 -42 -79 -46 -28 -31 -7 -46 -0 -11 -38 -43 -56 -58 -0 -0 -4 -1 -0 -0 -0 -0 -0 -0 -0 -0 -57 -92 -5 -4 -3 -13 -49 -17 -12 -16 -32 -39 -39 -22 -26 -40 -36
-116 -105 -32 -41 -1 -0 -2 -0 -4 -39 -47 -19 -30 -34 -38 -0 -0 -0 -0 -0 -0 -0 -0 -0 -0 -0 -0 -2 -61 -33 -45 -5 -8 -1 -2 -0 -0 -8 -3 -14 -0 -0 -0 -0
-171 -62 -0 -29 -13 -31 -37 -42 -40 -40 -38 -17 -39 -26 -25 -0 -0 -0 -0 -0 -0 -0 -0 -0 -1 -0 -0 -0 -4 -0 -29 -11 -19 -19 -12 -12 -3 -44 -3 -2 -0 -0 -0 -1
-24 -11 -92 -100 -96 -77 -60 -68 -82 -75 -45 -17 -11 -4 -20 -49 -0 -0 -0 -0 -0 -0 -0 -1 -0 -0 -5 -1 -0 -0 -12 -4 -8 -1 -0 -0 -0 -3 -1 -2 -0 -0 -0 -0
-0 -0 -66 -69 -99 -78 -98 -71 -99 -61 -39 -42 -6 -0 -0 -4 -5 -11 -2 -10 -0 -0 -0 -0 -0 -0 -0 -0 -0 -3 -0 -0 -0 -1 -0 -0 -1 -0 -0 -0 -0 -3 -5 -0
-0 -3 -24 -73 -89 -49 -74 -80 -146 -46 -0 -0 -0 -42 -58 -34 -39 -33 -49 -11 -0 -4 -0 -0 -0 -0 -7 -0 -0 -0 -0 -0 -55 -15 -0 -0 -1 -0 -51 -17 -27 -23 -3 -4
-23 -22 -28 -65 -72 -46 -41 -49 -57 -74 -93 -49 -0 -1 -31 -43 -41 -18 -0 -0 -0 -0 -0 -0 -4 -9 -13 -0 -0 -0 -0 -0 -0 -8 -55 -50 -35 -49 -23 -20 -12 -2 -2 -0
-57 -44 -87 -77 -82 -46 -33 -12 -16 -37 -25 -1 -19 -55 -5 -2 -0 -0 -0 -0 -0 -7 -0 -15 -6 -0 -11 -14 -1 -0 -0 -0 -2 -3 -1 -2 -11 -15 -10 -8 -16 -13 -7 -0
-41 -41 -75 -113 -19 -13 -5 -27 -14 -19 -32 -92 -63 -54 -0 -0 -0 -0 -0 -0 -0 -21 -0 -1 -1 -7 -12 -22 -1 -0 -0 -1 -3 -2 -2 -2 -5 -4 -4 -0 -3 -8 -1 -0
-59 -30 -58 -37 -23 -12 -5 -0 -4 -43 -52 -43 -58 -90 -0 -0 -0 -16 -18 -15 -15 -0 -0 -15 -14 -1 -14 -11 -15 -17 -8 -0 -0 -0 -2 -3 -0 -0 -0 -0 -3 -0 -3 -0
-73 -32 -26 -17 -14 -16 -7 -63 -19 -29 -50 -59 -16 -0 -0 -0 -0 -0 -4 -0 -0 -1 -0 -1 -0 -0 -0 -0 -9 -26 -24 -34 -17 -12 -14 -4 -3 -3 -1 -1 -0 -1 -0 -0
-6 -59 -70 -2 -15 -15 -24 -21 -34 -45 -20 -0 -0 -0 -0 -0 -19 -0 -0 -0 -0 -0 -0 -0 -0 -0 -1 -0 -12 -19 -27 -29 -38 -40 -12 -6 -3 -2 -0 -0 -0 -0 -0 -0
-23 -21 -35 -16 -33 -9 -18 -25 -31 -28 -52 -28 -37 -29 -26 -24 -27 -0 -0 -0 -0 -0 -0 -0 -0 -0 -0 -1 -0 -0 -0 -0 -7 -19 -9 -3 -0 -0 -0 -0 -0 -0 -0 -0
-27 -32 -19 -29 -21 -28 -18 -16 -12 -42 -20 -27 -22 -30 -14 -22 -1 -0 -0 -0 -0 -0 -0 -0 -0 -0 -0 -0 -0 -0 -0 -1 -0 -0 -0 -0 -0 -0 -0 -0 -0 -0 -0 -0
-37 -13 -14 -22 -27 -33 -29 -23 -83 -23 -24 -33 -29 -33 -42 -27 -0 -0 -0 -0 -0 -0 -0 -0 -0 -0 -9 -0 -0 -0 -0 -0 -0 -0 -0 -0 -0 -0 -0 -0 -0 -0 -0 -1
Wind_Speed
32 39 nan nan nan nan nan nan nan nan 32 23 30 37 53 60 68 28 36 13 16 24 23 26 20 18 20 19 19 22 23 21 19 17 17 19 18 18 19 17 17 17 19 20
32 42 43 nan 20 20 43 44 45 33 45 32 43 48 51 54 54 39 29 18 34 25 18 23 22 16 19 18 18 17 22 24 21 24 25 22 21 22 23 20 17 21 18 19
36 41 51 29 41 38 44 65 42 38 43 49 56 62 55 48 51 49 32 34 32 31 16 15 23 21 23 23 23 28 24 23 27 25 30 29 28 26 24 24 21 21 15 16
37 42 39 33 44 58 59 57 54 32 42 55 51 50 48 47 41 29 30 30 36 30 27 23 23 23 26 30 29 38 33 30 29 33 31 34 33 31 30 28 23 24 15 14
31 44 34 36 40 31 31 30 46 47 38 40 47 51 42 39 39 31 26 27 27 30 34 34 39 36 30 29 38 37 40 36 37 41 41 39 38 39 35 36 28 23 16 13
nan 32 33 36 45 nan 37 50 33 50 35 40 42 nan 38 31 25 15 19 26 25 30 33 34 33 36 35 43 39 38 38 43 50 42 47 43 46 47 41 40 33 26 21 17
14 15 33 38 42 37 nan 41 43 52 25 11 14 nan 19 3 14 20 29 36 35 34 33 37 37 39 39 44 47 42 44 59 71 56 nan 19 64 45 48 42 31 28 25 23
39 37 39 47 47 48 47 53 50 51 53 51 38 18 14 16 18 23 30 38 43 42 40 38 42 43 45 52 49 53 62 65 70 68 69 59 nan 30 34 28 28 30 30 29
42 36 34 56 45 44 43 44 51 53 43 42 35 37 37 34 35 39 44 45 nan nan 42 46 49 51 53 54 57 59 63 61 63 60 nan nan nan nan 18 22 30 28 29 28
38 39 26 39 46 45 51 52 47 44 45 48 53 51 52 51 50 50 nan nan nan nan nan nan 53 56 55 55 61 60 60 56 54 nan nan nan nan 17 10 16 27 24 25 27
20 37 32 nan 38 36 42 46 42 41 47 47 50 52 47 47 50 53 nan nan nan nan nan nan nan 56 53 48 52 53 50 48 42 nan nan 41 36 35 26 19 28 25 24 26
27 31 37 nan nan 17 nan nan 51 nan 54 55 53 55 59 nan 50 nan nan nan nan nan nan nan nan nan 51 48 43 40 44 43 40 37 33 34 34 33 34 29 27 44 38 38
22 nan nan nan nan nan nan nan nan nan 33 38 34 38 nan nan nan nan nan nan nan nan nan nan nan nan nan nan nan 47 42 44 42 38 32 30 33 33 33 32 36 nan 38 nan
13 14 24 nan nan nan nan nan nan 27 37 39 38 38 nan nan nan nan nan nan nan nan nan nan nan nan nan nan nan nan nan 42 41 37 34 37 35 26 nan nan nan nan nan nan
5 nan nan nan nan 19 24 27 30 31 33 34 37 40 41 nan nan nan nan nan nan nan nan nan nan nan nan nan nan nan nan nan nan nan nan nan 38 nan nan nan nan nan nan nan
nan nan nan nan 24 22 26 30 30 34 32 33 37 nan nan nan nan nan nan nan nan nan nan nan nan nan nan nan nan nan nan nan nan nan nan nan nan nan nan nan nan nan nan nan
nan nan nan 26 30 29 32 33 34 nan nan nan nan nan nan nan nan nan nan nan nan nan nan nan nan nan nan nan nan nan nan nan nan nan nan nan nan nan nan nan nan nan nan nan
nan nan 28 36 30 nan 33 33 nan nan nan nan nan nan nan nan nan nan nan nan nan nan nan nan nan nan nan nan nan nan nan nan nan nan nan nan nan nan nan nan nan nan nan nan
25 26 31 36 33 34 33 31 nan nan nan nan nan nan nan nan nan nan nan nan nan nan nan nan nan nan nan nan nan nan nan nan nan nan nan nan nan nan nan nan nan nan nan nan
31 27 32 34 37 37 37 28 34 25 19 18 22 nan nan nan nan nan nan nan nan nan nan nan nan nan nan nan nan nan nan nan nan nan nan nan nan nan nan nan nan nan nan nan
26 29 30 33 30 33 nan nan 14 11 20 24 nan nan nan nan nan nan nan nan nan nan nan nan nan nan nan nan nan nan nan nan nan nan nan nan nan nan nan nan nan nan nan nan
24 26 31 34 34 nan nan nan nan 4 25 18 21 nan nan nan nan nan nan nan nan nan nan nan nan nan nan nan nan nan nan nan nan nan nan nan nan nan nan nan nan nan nan nan
23 24 25 26 23 28 nan 25 nan 16 19 19 nan nan nan nan nan nan nan nan nan nan nan nan nan nan nan nan nan nan nan nan nan nan nan nan nan nan nan nan nan nan nan nan
nan nan nan nan 19 25 25 24 21 19 nan nan nan nan nan nan nan nan nan nan nan nan nan nan nan nan nan nan nan nan nan nan nan nan nan nan nan nan nan nan nan nan nan nan
24 nan 15 20 nan 27 25 24 22 21 nan nan nan nan nan nan nan nan nan nan nan nan nan nan nan nan nan nan nan nan nan nan nan nan nan nan nan nan nan nan nan nan nan nan
17 13 13 13 17 18 21 24 22 nan nan nan nan nan nan nan nan nan nan nan nan nan nan nan nan nan nan nan nan nan nan nan nan nan nan nan nan nan nan nan nan nan nan nan
11 10 13 14 19 22 20 21 nan nan nan nan nan nan nan nan nan nan nan nan nan nan nan nan nan nan nan nan nan nan nan nan nan nan nan nan nan nan nan nan nan nan nan nan
Wind_Direction
201 202 nan nan nan nan nan nan nan nan 263 270 264 261 263 261 265 280 133 218 257 266 271 285 285 305 309 317 327 324 324 318 320 319 325 323 330 326 322 322 338 340 328 337
199 204 225 nan 179 180 211 208 205 239 247 239 231 239 246 270 274 282 137 214 231 235 243 271 290 298 300 303 307 319 324 321 306 310 309 317 315 319 318 316 333 330 322 321
204 215 217 231 218 221 225 213 214 222 227 247 244 238 241 260 270 272 232 218 259 289 156 264 293 296 296 298 298 301 300 296 296 306 308 308 299 302 305 310 308 322 313 308
206 219 221 248 244 249 231 226 205 232 238 241 236 234 232 234 240 228 222 214 209 236 246 253 246 264 291 297 298 295 296 294 294 297 300 295 297 293 294 294 308 320 297 309
234 217 222 240 228 255 258 227 211 208 208 226 242 236 221 213 208 196 196 224 223 229 234 241 250 253 265 279 284 289 305 300 296 293 289 287 286 284 279 283 288 295 303 306
nan 222 223 234 236 nan 261 263 254 202 211 230 236 nan 252 211 201 198 219 231 239 247 250 251 246 248 257 265 280 290 296 300 292 280 283 284 277 269 263 271 276 286 296 303
210 232 241 251 257 263 nan 273 286 280 305 316 272 nan 263 138 194 210 225 227 230 237 248 253 254 256 259 263 271 270 274 278 268 267 nan 249 244 243 258 262 273 277 285 298
233 231 243 239 252 248 260 267 273 277 270 271 274 305 313 285 255 240 243 241 237 240 242 249 257 260 264 269 271 272 277 280 287 297 300 291 nan 212 225 258 265 276 287 290
235 240 233 242 252 259 262 265 255 264 270 275 274 267 265 259 254 253 253 253 nan nan 256 255 256 260 268 275 277 280 281 287 288 292 nan nan nan nan 219 252 273 285 280 294
238 251 282 247 238 246 258 264 266 272 273 275 278 273 267 266 262 264 nan nan nan nan nan nan 266 264 276 276 282 280 281 285 288 nan nan nan nan 120 200 253 260 271 286 296
228 229 243 nan 224 238 248 254 258 257 263 264 269 274 278 279 278 277 nan nan nan nan nan nan nan 262 264 264 281 279 280 278 272 nan nan 296 297 300 275 276 271 280 292 291
239 265 282 nan nan 288 nan nan 253 nan 260 258 263 266 267 nan 268 nan nan nan nan nan nan nan nan nan 266 265 267 276 279 280 278 279 284 293 291 279 261 272 277 285 287 289
256 nan nan nan nan nan nan nan nan nan 281 285 278 274 nan nan nan nan nan nan nan nan nan nan nan nan nan nan nan 269 267 270 274 276 274 276 287 293 287 270 260 nan 272 nan
331 309 305 nan nan nan nan nan nan 275 272 272 274 266 nan nan nan nan nan nan nan nan nan nan nan nan nan nan nan nan nan 268 277 275 271 273 276 285 nan nan nan nan nan nan
198 nan nan nan nan 266 265 264 269 273 279 278 276 274 267 nan nan nan nan nan nan nan nan nan nan nan nan nan nan nan nan nan nan nan nan nan 273 nan nan nan nan nan nan nan
nan nan nan nan 298 288 278 272 274 271 266 268 268 nan nan nan nan nan nan nan nan nan nan nan nan nan nan nan nan nan nan nan nan nan nan nan nan nan nan nan nan nan nan nan
nan nan nan 292 297 296 293 293 291 nan nan nan nan nan nan nan nan nan nan nan nan nan nan nan nan nan nan nan nan nan nan nan nan nan nan nan nan nan nan nan nan nan nan nan
nan nan 297 312 311 nan 298 295 nan nan nan nan nan nan nan nan nan nan nan nan nan nan nan nan nan nan nan nan nan nan nan nan nan nan nan nan nan nan nan nan nan nan nan nan
287 293 299 300 294 293 300 303 nan nan nan nan nan nan nan nan nan nan nan nan nan nan nan nan nan nan nan nan nan nan nan nan nan nan nan nan nan nan nan nan nan nan nan nan
267 272 268 282 285 280 274 259 281 294 300 293 284 nan nan nan nan nan nan nan nan nan nan nan nan nan nan nan nan nan nan nan nan nan nan nan nan nan nan nan nan nan nan nan
280 281 280 283 284 283 nan nan 223 279 281 286 nan nan nan nan nan nan nan nan nan nan nan nan nan nan nan nan nan nan nan nan nan nan nan nan nan nan nan nan nan nan nan nan
281 286 292 289 292 nan nan nan nan 234 279 284 299 nan nan nan nan nan nan nan nan nan nan nan nan nan nan nan nan nan nan nan nan nan nan nan nan nan nan nan nan nan nan nan
275 282 284 288 303 312 nan 327 nan 326 293 295 nan nan nan nan nan nan nan nan nan nan nan nan nan nan nan nan nan nan nan nan nan nan nan nan nan nan nan nan nan nan nan nan
nan nan nan nan 296 307 312 329 325 314 nan nan nan nan nan nan nan nan nan nan nan nan nan nan nan nan nan nan nan nan nan nan nan nan nan nan nan nan nan nan nan nan nan nan
285 nan 286 303 nan 296 309 316 323 320 nan nan nan nan nan nan nan nan nan nan nan nan nan nan nan nan nan nan nan nan nan nan nan nan nan nan nan nan nan nan nan nan nan nan
293 282 280 308 307 301 306 309 316 nan nan nan nan nan nan nan nan nan nan nan nan nan nan nan nan nan nan nan nan nan nan nan nan nan nan nan nan nan nan nan nan nan nan nan
301 307 292 289 309 307 304 306 nan nan nan nan nan nan nan nan nan nan nan nan nan nan nan nan nan nan nan nan nan nan nan nan nan nan nan nan nan nan nan nan nan nan nan nan